Boulder City, NV

10:07 PM PST on November 21, 2019 (GMT -0800)
Boulder City

Weather History for KBVU - October, 2019

Change the Weather History Date:

Thursday, October 17, 2019

  Actual Average (WUND) Record (WUND)
Temperature  
Mean Temperature 74 °F -  
Max Temperature 87 °F - - (-1)
Min Temperature 60 °F - - (-1)
Cooling Degree Days 8    
Growing Degree Days 24 (Base 50)    
Moisture  
Dew Point 30 °F    
Average Humidity 22    
Maximum Humidity 39    
Minimum Humidity 10    
Precipitation  
Precipitation 0.00 in - - ()
Sea Level Pressure  
Sea Level Pressure 29.69 in    
Wind  
Wind Speed 6 mph ()    
Max Wind Speed 31 mph    
Max Gust Speed 39 mph    
Visibility 9.8 miles    
Events      
Averages and records for this station are not official NWS values.
T = Trace of Precipitation, MM = Missing Value Source: Averaged Metar Reports

Daily Weather History Graph

Daily Weather History Graph

Search for Another Location

Airport or City:

Astronomy

Oct. 17, 2019 Rise Set
Actual Time 6:47 AM PDT 6:01 PM PDT
Civil Twilight 6:21 AM PDT 6:27 PM PDT
Nautical Twilight 5:52 AM PDT 6:56 PM PDT
Astronomical Twilight 5:22 AM PDT 7:26 PM PDT
Moon 8:42 PM PDT (10/17) 10:18 AM PDT (10/17)
Length of Visible Light 12h 05m
Length of Day
11h 13m
Waning Gibbous, 86% of the Moon is Illuminated
Oct 17
Waning Gibbous
Oct 21
Last Quarter
Oct 27
New
Nov 4
First Quarter
Nov 12
Full

Hourly Weather History & Observations

Time (PDT) Temp. Dew Point Humidity Pressure Visibility Wind Dir Wind Speed Gust Speed Precip Events Conditions
12:15 AM 68.0 °F 32.0 °F 26% 29.83 in 10.0 mi North 3.5 mph - N/A   Scattered Clouds
12:35 AM 66.2 °F 32.0 °F 28% 29.82 in 10.0 mi Calm Calm - N/A   Partly Cloudy
12:55 AM 66.2 °F 35.6 °F 32% 29.82 in 10.0 mi Calm Calm - N/A   Scattered Clouds
1:15 AM 64.4 °F 37.4 °F 37% 29.82 in 10.0 mi Calm Calm - N/A   Mostly Cloudy
1:55 AM 64.4 °F 33.8 °F 32% 29.81 in 10.0 mi Calm Calm - N/A   Mostly Cloudy
2:15 AM 64.4 °F 33.8 °F 32% 29.81 in 10.0 mi Calm Calm - N/A   Mostly Cloudy
2:35 AM 62.6 °F 33.8 °F 34% 29.80 in 10.0 mi ENE 3.5 mph - N/A   Mostly Cloudy
2:55 AM 62.6 °F 32.0 °F 32% 29.79 in 10.0 mi Calm Calm - N/A   Mostly Cloudy
3:15 AM 62.6 °F 32.0 °F 32% 29.79 in 10.0 mi North 3.5 mph - N/A   Mostly Cloudy
3:35 AM 60.8 °F 33.8 °F 36% 29.78 in 10.0 mi NE 3.5 mph - N/A   Mostly Cloudy
3:55 AM 62.6 °F 32.0 °F 32% 29.78 in 10.0 mi Calm Calm - N/A   Scattered Clouds
4:15 AM 62.6 °F 32.0 °F 32% 29.77 in 10.0 mi Calm Calm - N/A   Mostly Cloudy
4:35 AM 62.6 °F 33.8 °F 34% 29.77 in 10.0 mi Calm Calm - N/A   Mostly Cloudy
4:55 AM 62.6 °F 30.2 °F 30% 29.77 in 10.0 mi NW 3.5 mph - N/A   Mostly Cloudy
5:15 AM 62.6 °F 32.0 °F 32% 29.77 in 10.0 mi Calm Calm - N/A   Mostly Cloudy
5:35 AM 64.4 °F 30.2 °F 28% 29.77 in 10.0 mi Calm Calm - N/A   Scattered Clouds
5:55 AM 62.6 °F 32.0 °F 32% 29.76 in 10.0 mi Calm Calm - N/A   Scattered Clouds
6:15 AM 62.6 °F 30.2 °F 30% 29.76 in 10.0 mi Calm Calm - N/A   Partly Cloudy
6:35 AM 60.8 °F 33.8 °F 36% 29.76 in 10.0 mi East 3.5 mph - N/A   Clear
6:55 AM 60.8 °F 35.6 °F 39% 29.76 in 10.0 mi Calm Calm - N/A   Clear
7:15 AM 62.6 °F 33.8 °F 34% 29.75 in 10.0 mi Calm Calm - N/A   Clear
7:35 AM 64.4 °F 32.0 °F 30% 29.75 in 10.0 mi NW 4.6 mph - N/A   Clear
7:55 AM 66.2 °F 30.2 °F 26% 29.75 in 10.0 mi Calm Calm - N/A   Clear
8:15 AM 68.0 °F 30.2 °F 24% 29.76 in 10.0 mi Calm Calm - N/A   Clear
8:35 AM 71.6 °F 28.4 °F 20% 29.75 in 10.0 mi Calm Calm - N/A   Clear
8:55 AM 71.6 °F 28.4 °F 20% 29.75 in 10.0 mi Calm Calm - N/A   Clear
9:15 AM 71.6 °F 32.0 °F 23% 29.75 in 10.0 mi Calm Calm - N/A   Clear
9:35 AM 75.2 °F 30.2 °F 19% 29.75 in 10.0 mi West 4.6 mph - N/A   Clear
9:55 AM 75.2 °F 28.4 °F 18% 29.74 in 10.0 mi Calm Calm - N/A   Clear
10:15 AM 75.2 °F 28.4 °F 18% 29.75 in 10.0 mi Calm Calm - N/A   Clear
10:35 AM 77.0 °F 30.2 °F 18% 29.74 in 10.0 mi Variable 3.5 mph - N/A   Clear
10:55 AM 80.6 °F 32.0 °F 17% 29.73 in 10.0 mi WSW 6.9 mph - N/A   Clear
11:35 AM 82.4 °F 32.0 °F 16% 29.71 in 10.0 mi SSW 8.1 mph 13.8 mph N/A   Clear
11:55 AM 82.4 °F 32.0 °F 16% 29.70 in 10.0 mi SW 15.0 mph 21.9 mph N/A   Clear
12:15 PM 82.4 °F 32.0 °F 16% 29.69 in 10.0 mi South 10.4 mph 17.3 mph N/A   Clear
12:35 PM 84.2 °F 30.2 °F 14% 29.67 in 10.0 mi SSE 11.5 mph 18.4 mph N/A   Clear
12:55 PM 86.0 °F 30.2 °F 13% 29.65 in 10.0 mi SSE 13.8 mph - N/A   Clear
1:15 PM 87.8 °F 26.6 °F 11% 29.63 in 10.0 mi SW 24.2 mph - N/A   Clear
1:35 PM 87.8 °F 26.6 °F 11% 29.63 in 10.0 mi WSW 15.0 mph 24.2 mph N/A   Clear
1:55 PM 87.8 °F 26.6 °F 11% 29.61 in 10.0 mi WSW 17.3 mph 25.3 mph N/A   Clear
2:15 PM 87.8 °F 26.6 °F 11% 29.60 in 10.0 mi WSW 19.6 mph 26.5 mph N/A   Clear
2:35 PM 87.8 °F 26.6 °F 11% 29.59 in 10.0 mi WSW 21.9 mph 28.8 mph N/A   Clear
2:55 PM 87.8 °F 26.6 °F 11% 29.59 in 10.0 mi WSW 23.0 mph 29.9 mph N/A   Clear
3:15 PM 86.0 °F 24.8 °F 11% 29.59 in 10.0 mi WSW 25.3 mph 34.5 mph N/A   Clear
3:35 PM 86.0 °F 23.0 °F 10% 29.59 in 10.0 mi SW 25.3 mph 33.4 mph N/A   Clear
3:55 PM 84.2 °F 23.0 °F 11% 29.59 in 10.0 mi WSW 31.1 mph 36.8 mph N/A   Clear
4:15 PM 84.2 °F 21.2 °F 10% 29.58 in 9.0 mi SW 26.5 mph 39.1 mph N/A   Clear
4:35 PM 84.2 °F 23.0 °F 11% 29.58 in 10.0 mi SW 25.3 mph - N/A   Clear
4:55 PM 82.4 °F 21.2 °F 10% 29.57 in 10.0 mi SW 21.9 mph 31.1 mph N/A   Clear
5:15 PM 82.4 °F 23.0 °F 11% 29.57 in 10.0 mi SSW 18.4 mph - N/A   Clear
5:35 PM 80.6 °F 23.0 °F 12% 29.57 in 10.0 mi WSW 19.6 mph 28.8 mph N/A   Clear
5:55 PM 78.8 °F 24.8 °F 14% 29.57 in 10.0 mi WSW 18.4 mph - N/A   Clear
6:15 PM 78.8 °F 24.8 °F 14% 29.57 in 10.0 mi SW 16.1 mph 23.0 mph N/A   Clear
6:35 PM 77.0 °F 26.6 °F 16% 29.58 in 10.0 mi WSW 17.3 mph 23.0 mph N/A   Partly Cloudy
6:55 PM 77.0 °F 28.4 °F 17% 29.59 in 10.0 mi SSW 15.0 mph 21.9 mph N/A   Partly Cloudy
7:15 PM 75.2 °F 28.4 °F 18% 29.59 in 10.0 mi SSW 19.6 mph 27.6 mph N/A   Scattered Clouds
7:35 PM 75.2 °F 30.2 °F 19% 29.59 in 10.0 mi South 17.3 mph 27.6 mph N/A   Mostly Cloudy
7:55 PM 75.2 °F 32.0 °F 21% 29.60 in 10.0 mi SSW 15.0 mph 21.9 mph N/A   Mostly Cloudy
8:15 PM 73.4 °F 32.0 °F 22% 29.61 in 10.0 mi SSW 9.2 mph 20.7 mph N/A   Mostly Cloudy
8:35 PM 73.4 °F 30.2 °F 20% 29.62 in 10.0 mi SW 6.9 mph - N/A   Mostly Cloudy
8:55 PM 71.6 °F 30.2 °F 22% 29.62 in 10.0 mi WSW 5.8 mph - N/A   Mostly Cloudy
9:15 PM 71.6 °F 30.2 °F 22% 29.61 in 7.0 mi SW 13.8 mph - N/A   Overcast
9:35 PM 71.6 °F 30.2 °F 22% 29.62 in 5.0 mi WSW 18.4 mph 26.5 mph N/A   Haze
9:55 PM 71.6 °F 30.2 °F 22% 29.63 in 6.0 mi WSW 11.5 mph 26.5 mph N/A   Haze
10:15 PM 69.8 °F 32.0 °F 25% 29.65 in 10.0 mi WSW 13.8 mph 21.9 mph N/A   Overcast
10:35 PM 69.8 °F 30.2 °F 23% 29.66 in 10.0 mi SW 11.5 mph - N/A   Overcast
10:55 PM 68.0 °F 30.2 °F 24% 29.66 in 10.0 mi SW 10.4 mph 18.4 mph N/A   Mostly Cloudy
11:15 PM 68.0 °F 30.2 °F 24% 29.67 in 10.0 mi Variable 6.9 mph - N/A   Mostly Cloudy
11:35 PM 69.8 °F 28.4 °F 21% 29.67 in 10.0 mi WNW 8.1 mph 24.2 mph N/A   Scattered Clouds
11:55 PM 71.6 °F 28.4 °F 20% 29.68 in 10.0 mi WNW 18.4 mph 26.5 mph N/A   Mostly Cloudy